DELTA 1 DEB, 21331

Orbit data source: Space-Track

DELTA 1 DEB, 21331 is space debris in SSO originally from a launch on Thu, 12 Jun 1975 UTC launched from the Air Force Western Test Range (AFWTR). Debris objects in space refer to the collection of defunct objects orbiting the Earth. Examples of debris include non-operational satellites, rocket bodies, and fragments generated from explosions, collisions, or faulty payload assembly.

Loading next visibility...
Identifier
21331, 1975-052AZ
Orbit
SSO
Country
Flag of USUS
Related business
Manufacturer
Unknown
Mission
Spacecraft
Bus & Motor
Unknown
Mass
Unknown
Launch date (UTC)
1975-06-12 (51 years ago)
Launch vehicle
Unknown
Launch site
Air Force Western Test Range (AFWTR)
Object type
Payload
Rocket body
Debris
Shape & HBR
Unknown shape, 0.1 m
Radar Cross Section
Small (<0.1 m²)

Expand to show TLE details & history
Last TLE update: 13 hours ago

TLE from 13 hours ago
0 DELTA 1 DEB
1 21331U 75052AZ  25350.34627854  .00000026  00000-0  12534-3 0  9999
2 21331  99.6701 199.5129 0026001 182.6498   0.3348 13.39741378692390
Epoch: 2025-12-16T08:18Z
TLE epoch observation values (Epoch: 2025-12-16T08:18:38.465Z)
Latitude
-3.07315°
Longitude
169.09934°
Altitude
1,093.993 km
Speed
7.315 km/s
True Right ascension
01h 15m 57s
True Declination
-3° 03' 20"
Sunlit
Object was in daylight at epoch
Visualization orbit readout
Latitude
Unknown
Longitude
Unknown
Altitude
Unknown
Speed
Unknown
Apparent Right ascension
Unknown
Apparent Declination
Unknown
Sunlit
N/A
Visualization observer readout
Local Sidereal Time
19:42:37
Azimuth
Unknown
Elevation
Unknown
Doppler factor
Unknown
Orbital elements
Apogee altitude
1,127.02 km
Perigee altitude
1,088.093 km
Semi-major axis
7,485.693 km
Eccentricity
0.0026
Inclination
99.6701°
RAAN
199.5129°
Arg. of periapsis
182.6498°
True anomaly
0.33655°
Mean anomaly
0.3348°
Eccentric anomaly
0.33567°
Mean motion
3.35116 °/min
Orbital period
107.43 mins
BSTAR
0.00012534
Loading maneuver chart data...
Computing Atmospheric mass density...
Loading historical data...
Loading historical data...
Loading historical data...
Loading historical data...
Loading historical data...
Loading historical data...
Loading historical data...

Documentation

Showing up to 5 results
|